DW4070 Weather Reports


time (UTC)temp
C
wind
direction
speed
KPH
gust
KPH
rain 1hr
cm
rain 24hr
cm
rain mn
cm
humidity
%
barometer
mb
20260510220018 17 280 0.0 0.0 0.00 0.61 0.00 88 1014.7
20260510214517 18 280 0.0 0.0 0.00 0.61 0.00 87 1014.6
20260510213017 18 280 0.0 0.0 0.00 0.61 0.00 86 1014.5
20260510211516 18 280 0.0 0.0 0.00 0.61 0.00 83 1014.3
20260510210015 18 280 0.0 0.0 0.00 0.76 0.00 80 1014.2
20260510204515 18 280 0.0 1.6 0.00 0.76 0.00 76 1014.0
20260510203015 18 280 0.0 3.2 0.00 0.76 0.00 76 1014.0
20260510201513 18 280 0.0 3.2 0.00 0.76 0.00 78 1014.2
20260510200013 18 280 0.0 6.4 0.00 0.99 0.00 77 1014.0
20260510194511 18 280 1.6 4.8 0.00 0.99 0.00 76 1014.2
20260510193010 18 280 1.6 4.8 0.00 0.99 0.00 77 1014.3
20260510191510 18 280 1.6 9.7 0.00 0.99 0.00 75 1014.4
20260510190012 19 280 0.0 8.0 0.00 1.32 0.00 78 1014.5
20260510184509 19 280 1.6 6.4 0.00 1.32 0.00 74 1014.7
20260510183006 19 280 0.0 0.0 0.00 1.32 0.00 77 1014.6
20260510181506 19 280 0.0 3.2 0.00 1.32 0.00 77 1014.5
20260510180005 19 280 0.0 8.0 0.00 1.32 0.00 77 1014.5
20260510174505 19 280 0.0 4.8 0.00 1.32 0.00 76 1014.7
20260510173100 18 280 0.0 4.8 0.00 1.32 0.00 76 1014.7
20260510171601 17 280 0.0 4.8 0.00 1.32 0.00 82 1014.8
20260510170119 16 280 0.0 3.2 0.00 1.32 0.00 84 1015.0
20260510164601 15 280 0.0 4.8 0.00 1.32 0.00 86 1015.0
20260510163045 15 280 0.0 3.2 0.00 1.32 0.00 87 1015.2
20260510161542 14 280 0.0 3.2 0.00 1.32 0.00 89 1015.2
20260510160040 13 280 0.0 4.8 0.00 1.32 0.00 89 1015.3
20260510154539 13 280 0.0 3.2 0.00 1.32 0.00 91 1015.4
20260510153048 13 280 0.0 3.2 0.00 1.32 0.00 91 1015.3
20260510151536 13 280 0.0 3.2 0.00 1.32 0.00 91 1015.5
20260510150033 12 280 0.0 3.2 0.00 1.32 0.00 92 1015.6
20260510144531 12 280 0.0 3.2 0.00 1.32 0.00 92 1015.5
20260510143028 12 280 0.0 3.2 0.00 1.32 0.00 93 1015.4
20260510141531 12 280 0.0 0.0 0.00 1.32 0.00 94 1015.1
20260510140024 12 280 0.0 0.0 0.00 1.32 0.00 94 1015.1
20260510134523 12 280 0.0 0.0 0.00 1.32 0.00 95 1015.1
20260510133019 11 280 0.0 0.0 0.00 1.32 0.00 95 1015.0
20260510131519 11 280 0.0 0.0 0.00 1.32 0.00 95 1014.9
20260510130036 11 280 0.0 0.0 0.00 1.35 0.00 95 1014.9
20260510124519 11 280 0.0 0.0 0.00 1.35 0.00 95 1014.7
20260510123013 11 280 0.0 0.0 0.00 1.35 0.00 95 1014.6
20260510121513 11 280 0.0 0.0 0.00 1.35 0.00 95 1014.4
20260510120025 11 280 0.0 0.0 0.00 1.35 0.00 95 1014.3
20260510114515 10 280 0.0 6.4 0.00 1.35 0.00 95 1014.3
20260510113009 10 280 1.6 4.8 0.00 1.35 0.00 95 1014.0
20260510111509 10 280 0.0 4.8 0.00 1.35 0.00 95 1013.9
20260510110018 10 280 0.0 3.2 0.00 1.35 0.00 95 1013.9
20260510104509 10 280 0.0 0.0 0.00 1.35 0.00 95 1014.0
20260510103006 10 279 0.0 3.2 0.00 1.35 0.00 95 1013.8
20260510101507 10 279 0.0 1.6 0.00 1.35 0.00 95 1013.9
20260510100005 10 51 0.0 0.0 0.00 1.35 0.00 95 1013.7
20260510094507 10 280 0.0 0.0 0.00 1.35 0.00 95 1013.7
20260510093003 10 280 0.0 0.0 0.00 1.35 0.00 95 1014.1
20260510091503 10 280 0.0 0.0 0.00 1.35 0.00 95 1014.1
20260510090003 10 280 0.0 0.0 0.00 1.35 0.00 95 1014.1
20260510084502 10 280 0.0 0.0 0.00 1.35 0.00 95 1014.1
20260510083001 10 280 0.0 3.2 0.00 1.35 0.00 95 1014.1
20260510081602 10 280 0.0 3.2 0.00 1.35 0.00 95 1013.8
20260510074557 10 280 0.0 0.0 0.00 1.35 0.00 95 1013.0
20260510073106 10 280 0.0 0.0 0.00 1.35 0.00 95 1013.1
20260510071555 10 280 0.0 0.0 0.00 1.35 0.00 95 1013.3
20260510070055 11 280 0.0 0.0 0.00 1.35 0.00 95 1013.2
20260510064554 11 280 0.0 0.0 0.00 1.35 0.00 95 1013.1
20260510063053 11 280 0.0 0.0 0.00 1.35 0.00 95 1013.2
20260510061552 11 280 0.0 0.0 0.00 1.35 0.00 95 1013.0
20260510060052 11 280 0.0 0.0 0.00 1.35 0.00 95 1013.0
20260510054551 11 280 0.0 0.0 0.00 1.35 0.00 95 1013.0
20260510053050 11 280 0.0 0.0 0.00 1.35 0.00 95 1013.2
20260510051554 11 280 0.0 0.0 0.00 1.35 0.00 95 1013.2
20260510050055 11 280 0.0 0.0 0.00 1.35 0.00 95 1013.2
20260510044548 11 280 0.0 0.0 0.00 1.35 0.00 95 1013.2
20260510043047 11 280 0.0 0.0 0.00 1.35 0.00 95 1013.1
20260510041545 11 280 0.0 0.0 0.00 1.35 0.00 95 1013.2
20260510040042 11 280 0.0 0.0 0.00 1.35 0.00 95 1012.9
20260510034547 11 280 0.0 0.0 0.00 1.35 1.35 95 1012.8
20260510033046 11 280 0.0 0.0 0.00 1.35 1.35 95 1012.8
20260510031541 11 280 0.0 0.0 0.00 1.35 1.35 95 1012.8
20260510030041 11 280 0.0 0.0 0.00 1.35 1.35 95 1012.9
20260510024541 11 280 0.0 0.0 0.00 1.35 1.35 95 1013.0
20260510023040 11 280 0.0 0.0 0.00 1.35 1.35 95 1013.0
20260510021540 11 280 0.0 0.0 0.00 1.35 1.35 95 1012.9
20260510020039 11 280 0.0 0.0 0.00 1.35 1.35 94 1012.9
20260510014543 11 280 0.0 0.0 0.00 1.35 1.35 95 1012.8
20260510013039 11 280 0.0 0.0 0.00 1.35 1.35 95 1012.8
20260510011538 11 280 0.0 0.0 0.00 1.35 1.35 95 1012.5
20260510010039 11 280 0.0 0.0 0.03 1.35 1.35 94 1012.3
20260510004637 11 280 0.0 0.0 0.05 1.35 1.35 94 1012.2
20260510003036 12 280 0.0 0.0 0.10 1.35 1.35 94 1012.2
20260510001535 12 280 0.0 0.0 0.13 1.35 1.35 94 1012.2
20260510000038 12 280 0.0 0.0 0.18 1.32 1.32 93 1012.0
20260509234541 12 280 0.0 0.0 0.20 1.30 1.30 94 1012.1
20260509233036 12 280 0.0 0.0 0.23 1.24 1.24 94 1012.2
20260509231533 12 280 0.0 0.0 0.25 1.19 1.19 94 1012.3
20260509230032 12 280 0.0 0.0 0.28 1.14 1.14 94 1012.1
20260509224544 12 280 0.0 3.2 0.25 1.07 1.07 93 1012.3
20260509223030 12 280 0.0 0.0 0.20 0.99 0.99 94 1012.7
20260509221532 12 280 0.0 0.0 0.15 0.94 0.94 94 1012.7